| time (UTC) | temp F | wind direction | speed knots | gust knots | rain 1hr in | rain 24hr in | rain mn in | humidity % | barometer mb |
| 20260505230029 | 77 | 232 | 5.2 | 11.3 | 0.00 | 0.00 | 0.00 | 13 | 1008.9 |
| 20260505224514 | 77 | 307 | 4.3 | 8.7 | 0.00 | 0.00 | 0.00 | 13 | 1008.9 |
| 20260505223012 | 78 | 222 | 7.0 | 13.9 | 0.00 | 0.00 | 0.00 | 12 | 1009.2 |
| 20260505221510 | 77 | 269 | 4.3 | 13.9 | 0.00 | 0.00 | 0.00 | 12 | 1009.4 |
| 20260505220009 | 77 | 292 | 7.0 | 14.8 | 0.00 | 0.00 | 0.00 | 13 | 1009.6 |
| 20260505214505 | 78 | 231 | 4.3 | 10.4 | 0.00 | 0.00 | 0.00 | 13 | 1009.7 |
| 20260505213008 | 77 | 213 | 5.2 | 9.6 | 0.00 | 0.00 | 0.00 | 15 | 1009.9 |
| 20260505211505 | 78 | 226 | 6.1 | 12.2 | 0.00 | 0.00 | 0.00 | 14 | 1010.2 |
| 20260505210002 | 78 | 257 | 3.5 | 9.6 | 0.00 | 0.00 | 0.00 | 14 | 1010.3 |
| 20260505204605 | 77 | 244 | 5.2 | 13.0 | 0.00 | 0.00 | 0.00 | 13 | 1010.5 |
| 20260505203058 | 77 | 208 | 1.7 | 11.3 | 0.00 | 0.00 | 0.00 | 14 | 1010.4 |
| 20260505201557 | 77 | 236 | 7.0 | 13.0 | 0.00 | 0.00 | 0.00 | 15 | 1010.5 |
| 20260505200057 | 76 | 192 | 7.0 | 13.0 | 0.00 | 0.00 | 0.00 | 16 | 1010.6 |
| 20260505194556 | 76 | 178 | 5.2 | 10.4 | 0.00 | 0.00 | 0.00 | 16 | 1010.5 |
| 20260505193055 | 77 | 221 | 4.3 | 13.0 | 0.00 | 0.00 | 0.00 | 17 | 1010.8 |
| 20260505191557 | 75 | 229 | 7.0 | 12.2 | 0.00 | 0.00 | 0.00 | 19 | 1010.9 |
| 20260505190055 | 75 | 198 | 5.2 | 13.0 | 0.00 | 0.00 | 0.00 | 20 | 1011.0 |
| 20260505184550 | 75 | 286 | 3.5 | 11.3 | 0.00 | 0.00 | 0.00 | 20 | 1011.0 |
| 20260505183047 | 74 | 259 | 3.5 | 10.4 | 0.00 | 0.00 | 0.00 | 23 | 1011.1 |
| 20260505181606 | 73 | 218 | 6.1 | 13.9 | 0.00 | 0.00 | 0.00 | 25 | 1011.3 |
| 20260505180056 | 73 | 312 | 5.2 | 11.3 | 0.00 | 0.00 | 0.00 | 26 | 1011.3 |
| 20260505174544 | 72 | 224 | 4.3 | 10.4 | 0.00 | 0.00 | 0.00 | 26 | 1011.3 |
| 20260505173039 | 71 | 213 | 6.1 | 9.6 | 0.00 | 0.00 | 0.00 | 26 | 1011.2 |
| 20260505171542 | 71 | 248 | 6.1 | 13.9 | 0.00 | 0.00 | 0.00 | 24 | 1011.3 |
| 20260505170037 | 71 | 250 | 4.3 | 8.7 | 0.00 | 0.00 | 0.00 | 26 | 1011.2 |
| 20260505164537 | 71 | 270 | 3.5 | 8.7 | 0.00 | 0.00 | 0.00 | 25 | 1011.2 |
| 20260505163037 | 71 | 181 | 5.2 | 9.6 | 0.00 | 0.00 | 0.00 | 24 | 1011.2 |
| 20260505161536 | 69 | 217 | 2.6 | 7.8 | 0.00 | 0.00 | 0.00 | 26 | 1011.3 |
| 20260505153134 | 67 | 210 | 2.6 | 5.2 | 0.00 | 0.00 | 0.00 | 29 | 1011.4 |
| 20260505151532 | 66 | 230 | 2.6 | 7.8 | 0.00 | 0.00 | 0.00 | 33 | 1011.4 |
| 20260505124519 | 63 | 196 | 1.7 | 4.3 | 0.00 | 0.00 | 0.00 | 44 | 1010.2 |
| 20260505123014 | 64 | 231 | 1.7 | 6.1 | 0.00 | 0.00 | 0.00 | 44 | 1010.2 |
| 20260505121512 | 64 | 246 | 2.6 | 6.1 | 0.00 | 0.00 | 0.00 | 43 | 1010.3 |
| 20260505120010 | 64 | 234 | 2.6 | 6.1 | 0.00 | 0.00 | 0.00 | 42 | 1010.0 |
| 20260505114509 | 65 | 196 | 2.6 | 7.8 | 0.00 | 0.00 | 0.00 | 42 | 1010.0 |
| 20260505113007 | 65 | 219 | 3.5 | 7.8 | 0.00 | 0.00 | 0.00 | 41 | 1009.9 |
| 20260505111505 | 66 | 215 | 4.3 | 8.7 | 0.00 | 0.00 | 0.00 | 41 | 1009.8 |
| 20260505101602 | 67 | 221 | 2.6 | 8.7 | 0.00 | 0.00 | 0.00 | 38 | 1010.2 |
| 20260505100053 | 67 | 250 | 4.3 | 7.8 | 0.00 | 0.00 | 0.00 | 37 | 1010.5 |
| 20260505094550 | 68 | 207 | 2.6 | 8.7 | 0.00 | 0.00 | 0.00 | 37 | 1010.7 |
| 20260505093049 | 68 | 215 | 4.3 | 8.7 | 0.00 | 0.00 | 0.00 | 37 | 1010.8 |
| 20260505091553 | 68 | 244 | 5.2 | 11.3 | 0.00 | 0.00 | 0.00 | 36 | 1011.0 |
| 20260505090044 | 69 | 258 | 4.3 | 7.8 | 0.00 | 0.00 | 0.00 | 34 | 1010.9 |
| 20260505084546 | 69 | 213 | 6.1 | 11.3 | 0.00 | 0.00 | 0.00 | 31 | 1011.0 |
| 20260505083053 | 70 | 234 | 5.2 | 9.6 | 0.00 | 0.00 | 0.00 | 28 | 1011.3 |
| 20260505081536 | 70 | 233 | 7.0 | 10.4 | 0.00 | 0.00 | 0.00 | 26 | 1011.2 |
| 20260505080033 | 70 | 253 | 5.2 | 8.7 | 0.00 | 0.00 | 0.00 | 26 | 1011.2 |
| 20260505074534 | 71 | 187 | 2.6 | 7.8 | 0.00 | 0.00 | 0.00 | 25 | 1011.3 |
| 20260505073028 | 71 | 244 | 3.5 | 7.0 | 0.00 | 0.00 | 0.00 | 25 | 1011.1 |
| 20260505071527 | 71 | 250 | 2.6 | 6.1 | 0.00 | 0.00 | 0.00 | 27 | 1011.0 |
| 20260505070024 | 71 | 205 | 1.7 | 4.3 | 0.00 | 0.00 | 0.00 | 28 | 1011.0 |
| 20260505064532 | 71 | 183 | 1.7 | 4.3 | 0.00 | 0.00 | 0.00 | 29 | 1010.9 |
| 20260505063023 | 72 | 223 | 2.6 | 4.3 | 0.00 | 0.00 | 0.00 | 29 | 1011.1 |
| 20260505061523 | 72 | 209 | 2.6 | 4.3 | 0.00 | 0.00 | 0.00 | 28 | 1011.0 |
| 20260505060022 | 72 | 234 | 0.9 | 6.1 | 0.00 | 0.00 | 0.00 | 29 | 1010.8 |
| 20260505054540 | 72 | 245 | 1.7 | 4.3 | 0.00 | 0.00 | 0.00 | 29 | 1010.8 |
| 20260505053023 | 72 | 211 | 1.7 | 4.3 | 0.00 | 0.00 | 0.00 | 30 | 1011.0 |
| 20260505051520 | 72 | 194 | 1.7 | 4.3 | 0.00 | 0.00 | 0.00 | 30 | 1011.0 |
| 20260505041518 | 73 | 254 | 1.7 | 6.1 | 0.00 | 0.00 | 0.00 | 25 | 1011.0 |
| 20260505040018 | 73 | 267 | 1.7 | 4.3 | 0.00 | 0.00 | 0.00 | 25 | 1011.2 |
| 20260505034525 | 73 | 233 | 2.6 | 4.3 | 0.00 | 0.00 | 0.00 | 24 | 1011.0 |
| 20260505033016 | 73 | 213 | 1.7 | 4.3 | 0.00 | 0.00 | 0.00 | 24 | 1010.6 |
| 20260505031515 | 74 | 221 | 1.7 | 3.5 | 0.00 | 0.00 | 0.00 | 23 | 1010.5 |
| 20260505030036 | 74 | 226 | 0.9 | 2.6 | 0.00 | 0.00 | 0.00 | 23 | 1010.4 |
| 20260505024517 | 74 | 249 | 0.9 | 3.5 | 0.00 | 0.00 | 0.00 | 23 | 1010.2 |
| 20260505023014 | 74 | 264 | 1.7 | 7.0 | 0.00 | 0.00 | 0.00 | 23 | 1010.3 |
| 20260505021516 | 74 | 211 | 1.7 | 4.3 | 0.00 | 0.00 | 0.00 | 23 | 1010.2 |
| 20260505020013 | 74 | 256 | 1.7 | 6.1 | 0.00 | 0.00 | 0.00 | 22 | 1010.1 |
| 20260505014518 | 75 | 248 | 2.6 | 6.1 | 0.00 | 0.00 | 0.00 | 22 | 1010.3 |
| 20260505013018 | 75 | 209 | 3.5 | 7.0 | 0.00 | 0.00 | 0.00 | 21 | 1009.9 |
| 20260505011510 | 75 | 284 | 2.6 | 7.0 | 0.00 | 0.00 | 0.00 | 24 | 1010.1 |
| 20260505010010 | 75 | 231 | 3.5 | 8.7 | 0.00 | 0.00 | 0.00 | 25 | 1010.2 |
| 20260505004538 | 75 | 254 | 2.6 | 7.0 | 0.00 | 0.00 | 0.00 | 25 | 1010.2 |
| 20260505003021 | 75 | 220 | 5.2 | 7.8 | 0.00 | 0.00 | 0.00 | 23 | 1010.2 |
| 20260505001520 | 76 | 218 | 2.6 | 8.7 | 0.00 | 0.00 | 0.00 | 24 | 1010.3 |
| 20260505000020 | 76 | 241 | 2.6 | 9.6 | 0.00 | 0.00 | 0.00 | 25 | 1010.4 |
| 20260504234520 | 76 | 218 | 4.3 | 8.7 | 0.00 | 0.00 | 0.00 | 24 | 1010.5 |
| 20260504233022 | 77 | 194 | 4.3 | 8.7 | 0.00 | 0.00 | 0.00 | 23 | 1010.3 |
| 20260504231517 | 77 | 229 | 3.5 | 7.8 | 0.00 | 0.00 | 0.00 | 24 | 1010.1 |